Showing default

COSMOS 81, 1571

Orbit data source: Space-Track

COSMOS 81, 1571 is a payload satellite owned by OKB-10 (CIS) in LEO that was launched on Fri, 03 Sep 1965 UTC via a KOSMOS 65S3 launch vehicle from the Tyuratam Missile And Space Complex (TTMTR). Payload-class satellites include a variety of spacecraft equipped with specific instruments for various scientific and technological missions. These include communications satellites like Starlink; space stations such as the ISS; scientific satellites like the Hubble; Earth observation satellites from companies like Planet Labs, Umbra, and HawkEye 360; GPS; miniature CubeSats for education and research; and military/defense satellites.

Loading next visibility...
Identifier
1571, 1965-070B
Orbit
LEO
Country
Flag of CISCIS
Related business
Manufacturer
OKB-10
Mission
Spacecraft
Bus & Motor
STRELA-1 11F610, Unknown motor
Mass
50 kg wet, 50 kg dry
Launch date (UTC)
1965-09-03 (61 years ago)
Launch vehicle
KOSMOS 65S3
Launch site
Tyuratam Missile And Space Complex (TTMTR)
Object type
Payload
Rocket body
Debris
Shape & HBR
POLY, 1.1 m
Radar Cross Section
Medium (>0.1 m² and <1 m²)

Expand to show TLE details & history
Last TLE update: 13 hours ago

TLE from 13 hours ago
0 COSMOS 81
1 01571U 65070B   26267.05202155 -.00000075  00000-0  13337-3 0  9998
2 01571  56.0606 295.1785 0086444 220.6677 161.6465 12.48869354784976
Epoch: 2026-09-24T01:14Z
TLE epoch observation values (Epoch: 2026-09-24T01:14:54.661Z)
Latitude
18.63528°
Longitude
-73.39146°
Altitude
1,534.233 km
Speed
7.072 km/s
True Right ascension
20h 32m 55s
True Declination
18° 32' 30"
Sunlit
Object was in daylight at epoch
Visualization orbit readout
Latitude
Unknown
Longitude
Unknown
Altitude
Unknown
Speed
Unknown
Apparent Right ascension
Unknown
Apparent Declination
Unknown
Sunlit
N/A
Visualization observer readout
Local Sidereal Time
07:14:52
Azimuth
Unknown
Elevation
Unknown
Doppler factor
Unknown
Orbital elements
Apogee altitude
1,536.885 km
Perigee altitude
1,401.216 km
Semi-major axis
7,847.187 km
Eccentricity
0.00864
Inclination
56.0606°
RAAN
295.1785°
Arg. of periapsis
220.6677°
True anomaly
161.95524°
Mean anomaly
161.6465°
Eccentric anomaly
161.80119°
Mean motion
3.12228 °/min
Orbital period
115.3 mins
BSTAR
0.00013337
Loading maneuver chart data...
Computing Atmospheric mass density...
Loading historical data...
Loading historical data...
Loading historical data...
Loading historical data...
Loading historical data...
Loading historical data...
Loading historical data...
Other satellites on launch #70 in the year 1965 (1965-09-03 UTC)

Documentation

Showing up to 5 results
|